Location: Easthampton
(42.2676°N, 72.6690°W)
Time: 04:59:44
(UTC+00:00)

AO-73 - Visible Passes

Search period start: 23 March 2023 00:00
Search period end: 02 April 2023 00:00
Orbit: 574 x 649 km, 97.7° (Epoch: 22 March)

Date Brightness Start Highest point End Pass type
(mag) Time Alt. Az. Time Alt. Az. Time Alt. Az.
23 Mar ? 07:29:08 10° NE 07:31:06 17° ENE 07:31:06 17° ENE visible
23 Mar ? 09:04:15 10° N 09:08:06 37° WNW 09:08:06 37° WNW visible
24 Mar ? 07:43:13 10° NE 07:45:59 24° ENE 07:45:59 24° ENE visible
24 Mar ? 09:19:08 10° NNW 09:22:39 26° WNW 09:22:59 26° WNW visible
25 Mar ? 07:57:30 10° NNE 08:00:52 35° ENE 08:00:52 35° ENE visible
25 Mar ? 09:34:08 10° NNW 09:37:06 19° WNW 09:37:51 18° W visible
26 Mar ? 08:11:55 10° NNE 08:15:43 53° E 08:15:43 53° E visible
26 Mar ? 09:49:25 10° NNW 09:51:31 14° WNW 09:52:43 12° W visible
27 Mar ? 08:26:25 10° NNE 08:30:34 82° E 08:30:34 82° E visible
28 Mar ? 08:41:00 10° N 08:45:09 68° WNW 08:45:25 65° W visible
29 Mar ? 07:21:06 10° ENE 07:23:15 14° E 07:23:15 14° E visible
29 Mar ? 08:55:40 10° N 08:59:39 45° WNW 09:00:14 42° W visible
30 Mar ? 07:34:56 10° NE 07:38:04 21° E 07:38:04 21° E visible
30 Mar ? 09:10:25 10° N 09:14:06 31° WNW 09:15:03 28° W visible
31 Mar ? 07:49:03 10° NE 07:52:42 30° E 07:52:53 30° E visible
31 Mar ? 09:25:16 10° NNW 09:28:30 22° WNW 09:29:52 19° W visible
01 Apr ? 08:03:19 10° NNE 08:07:16 43° E 08:07:40 42° ESE visible
01 Apr ? 09:40:19 10° NNW 09:42:52 16° WNW 09:44:39 13° W visible
